Weather in Roshchinskiy

Russia / Samara Oblast     53°03′04″N   50°29′42″E
temp.,
°C
wind,
m/s
gust,
m/s
humid.,
%
clouds,
%
prec.,
mm/h
press.,
hPa
HPBL,
m
21 january, fri
fri2101:00−15s239885 0.1 102246
04:00−16sse229983 0.1 102234
07:00−14s2496100 0.1 102282
10:00−15sse249885 0.3 102262
13:00−12s369661 0.0 1022150
16:00−14sse369617 0.0 1022100
19:00−16sse3797100 0.0 102288
22:00−16sse31096100 0.0 1023144
22 january, sat
sat2201:00−12sse41195100 0.0 1022231
04:00−11sse51294100 0.0 1022267
07:00−10sse61393100 0.0 1022327
10:00−9sse61591100 0.0 1022380
13:00−7sse71590100 0.0 1023486
16:00−7sse61389100 0.1 1024482
19:00−7sse61390100 0.0 1025413
22:00−7sse61391100 0.1 1025409
23 january, sun
sun2301:00−8sse61391100 0.0 1026359
04:00−8se51292100 0.0 1027321
07:00−10se51191100 0.0 1028245
10:00−9sse41088100 0.0 1030268
13:00−8se4885100 0.0 1031293
16:00−8ese4888100 0.0 1032245
19:00−10e3690100 0.0 1034112
22:00−11e3790100 0.0 1035109
24 january, mon
mon2401:00−11e3788100 0.0 1036124
04:00−11e3690100 0.0 1037103
07:00−11e3792100 0.0 1037147
10:00−11e3693100 0.0 1038160
13:00−10e3691100 0.0 1038199
16:00−11ne2294100 0.0 103811
19:00−13e3492100 0.0 103953
22:00−16ese2293100 0.0 103827
25 january, tue
tue2501:00−18ese2293100 0.0 103820
04:00−18ese2291100 0.0 103717
07:00−21e229491 0.0 103713
10:00−20ese229255 0.0 103628
13:00−13sse238014 0.0 103486
16:00−15se228965 0.0 103412
19:00−20se229282 0.0 10339
22:00−22se229261 0.0 10339